Satellite-Ground Cal/Val Region Overpasses Predictions

Prediction of Satellite NPP Overpassing Cal/Val Region: PacNW

Region Location: (Latitude: 10.00, Longitude: 139.50) to (Latitude: 22.70, Longitude: 165.60).

Table of predicted overpasses for the next 14.0 days since TLE Epoch: 1/7/2023
Interval Starting Time Starting Location Ending Time Ending Location
1 01/07/2023 02:28:07 ( 10.54, 162.94) 01/07/2023 02:31:34 ( 22.69, 160.03)
2 01/07/2023 14:59:51 ( 22.67, 160.30) 01/07/2023 15:03:26 ( 10.05, 157.29)
3 01/08/2023 02:11:37 ( 19.43, 165.60) 01/08/2023 02:12:32 ( 22.66, 164.80)
4 01/08/2023 03:50:27 ( 10.04, 142.43) 01/08/2023 03:53:56 ( 22.31, 139.51)
5 01/08/2023 14:40:51 ( 22.65, 165.05) 01/08/2023 14:44:26 ( 10.03, 162.04)
6 01/08/2023 16:22:21 ( 22.64, 139.68) 01/08/2023 16:22:33 ( 21.94, 139.50)
7 01/09/2023 03:31:26 ( 10.01, 147.20) 01/09/2023 03:35:02 ( 22.69, 144.17)
8 01/09/2023 16:03:20 ( 22.68, 144.44) 01/09/2023 16:06:55 ( 10.06, 141.43)
9 01/10/2023 03:12:25 ( 10.03, 151.95) 01/10/2023 03:16:00 ( 22.65, 148.94)
10 01/10/2023 15:44:19 ( 22.65, 149.19) 01/10/2023 15:47:54 ( 10.03, 146.18)
11 01/11/2023 02:53:24 ( 10.00, 156.71) 01/11/2023 02:57:00 ( 22.68, 153.69)
12 01/11/2023 15:25:18 ( 22.68, 153.96) 01/11/2023 15:28:53 ( 10.06, 150.95)
13 01/12/2023 02:34:23 ( 10.03, 161.46) 01/12/2023 02:37:58 ( 22.65, 158.45)
14 01/12/2023 15:06:17 ( 22.65, 158.71) 01/12/2023 15:09:52 ( 10.03, 155.70)
15 01/13/2023 02:16:09 ( 12.77, 165.59) 01/13/2023 02:18:58 ( 22.69, 163.20)
16 01/13/2023 03:56:52 ( 10.01, 140.85) 01/13/2023 03:58:30 ( 15.76, 139.51)
17 01/13/2023 14:47:16 ( 22.67, 163.47) 01/13/2023 14:50:51 ( 10.06, 160.46)
18 01/14/2023 03:37:51 ( 10.04, 145.60) 01/14/2023 03:41:26 ( 22.66, 142.59)
19 01/14/2023 14:31:22 ( 11.67, 165.59) 01/14/2023 14:31:50 ( 10.02, 165.21)
20 01/14/2023 16:09:44 ( 22.70, 142.86) 01/14/2023 16:13:20 ( 10.02, 139.83)
21 01/15/2023 03:18:50 ( 10.01, 150.36) 01/15/2023 03:22:26 ( 22.69, 147.34)
22 01/15/2023 15:50:44 ( 22.67, 147.61) 01/15/2023 15:54:19 ( 10.05, 144.60)
23 01/16/2023 02:59:49 ( 10.05, 155.11) 01/16/2023 03:03:24 ( 22.67, 152.10)
24 01/16/2023 15:31:42 ( 22.69, 152.37) 01/16/2023 15:35:18 ( 10.01, 149.35)
25 01/17/2023 02:40:48 ( 10.02, 159.87) 01/17/2023 02:44:23 ( 22.65, 156.86)
26 01/17/2023 15:12:42 ( 22.66, 157.12) 01/17/2023 15:16:17 ( 10.04, 154.11)
27 01/18/2023 02:21:47 ( 10.00, 164.64) 01/18/2023 02:25:23 ( 22.68, 161.61)
28 01/18/2023 14:53:40 ( 22.68, 161.88) 01/18/2023 14:57:16 ( 10.00, 158.86)
29 01/19/2023 03:44:16 ( 10.04, 144.01) 01/19/2023 03:47:51 ( 22.66, 141.00)
30 01/19/2023 14:35:52 ( 18.42, 165.59) 01/19/2023 14:38:15 ( 10.02, 163.62)
31 01/19/2023 16:16:09 ( 22.70, 141.27) 01/19/2023 16:18:13 ( 15.42, 139.50)
32 01/20/2023 03:25:15 ( 10.02, 148.77) 01/20/2023 03:28:50 ( 22.64, 145.76)
